Weather reports worldwide

Advertisment
New York City, ny, United States of America (2074728): temperature & dewpoint: 12.08.2019 18:00:00 - 18.08.2019 18:00:00 (EDT)New York City, ny, United States of America (2074728): wind speed: 12.08.2019 18:00:00 - 18.08.2019 18:00:00 (EDT)New York City, ny, United States of America (2074728): wind direction: 12.08.2019 18:00:00 - 18.08.2019 18:00:00 (EDT)New York City, ny, United States of America (2074728): reduced air pressure: 12.08.2019 18:00:00 - 18.08.2019 18:00:00 (EDT)New York City, ny, United States of America (2074728): visibility: 12.08.2019 18:00:00 - 18.08.2019 18:00:00 (EDT)New York City, ny, United States of America (2074728): precipitation: 12.08.2019 18:00:00 - 18.08.2019 18:00:00 (EDT)
Date & Time tt [°C] td [°C] ff [km/h] ff [kn] dd ppp [hPa] vv [km] rr [mm]
18.08.2019 18:00:00 23,3 22,2 13 7 W - 1,2 0,3
18.08.2019 17:00:00 28,9 22,8 5 3 - 1014,9 16 0,3
18.08.2019 16:00:00 30,6 23,3 9 5 - 1014,6 16 -
18.08.2019 15:00:00 30,6 21,7 13 7 SW 1015,1 16 -
18.08.2019 14:00:00 31,7 21,7 5 3 - 1015,6 16 -
18.08.2019 13:00:00 30,6 23,9 5 3 - 1015,7 16 -
18.08.2019 12:00:00 29,4 23,9 0 0 N 1016,0 16 -
18.08.2019 11:00:00 28,9 23,9 0 0 N 1016,6 13 -
18.08.2019 10:00:00 27,8 23,3 5 3 - 1016,5 11 -
18.08.2019 09:00:00 26,1 23,3 5 3 - 1016,6 11 -
18.08.2019 08:00:00 25,0 23,3 0 0 N 1016,8 11 -
18.08.2019 07:00:00 24,4 22,8 0 0 N 1016,0 11 -
18.08.2019 06:00:00 24,4 22,8 0 0 N 1015,7 11 -
18.08.2019 05:00:00 24,4 22,8 0 0 N 1015,3 11 -
18.08.2019 04:00:00 25,0 22,8 0 0 N 1015,5 13 -
18.08.2019 03:00:00 25,0 22,8 0 0 N 1015,3 11 -
18.08.2019 02:00:00 25,0 22,8 5 3 ENE 1015,4 13 0,0
18.08.2019 01:00:00 24,4 22,8 0 0 N 1015,3 13 0,0
18.08.2019 00:00:00 24,4 22,2 8 4 SSE 1015,1 16 -
17.08.2019 23:00:00 24,4 22,2 5 3 - 1015,2 16 -
17.08.2019 22:00:00 24,4 22,2 0 0 N 1015,3 16 -
17.08.2019 21:00:00 25,0 22,2 0 0 N 1015,0 16 -
17.08.2019 20:00:00 27,8 23,3 8 4 - 1014,6 16 -
17.08.2019 19:00:00 26,7 21,1 11 6 SSE 1014,0 16 -
17.08.2019 18:00:00 27,2 21,7 0 0 N 1014,2 16 -
17.08.2019 17:00:00 28,3 22,2 8 4 - 1014,2 16 -
17.08.2019 16:00:00 27,8 22,2 0 0 N 1014,6 16 -
17.08.2019 15:00:00 - - - - - - - -
17.08.2019 14:00:00 29,4 20,6 0 0 N 1016,2 16 -
17.08.2019 13:00:00 28,9 21,1 9 5 NE 1016,5 16 -
17.08.2019 12:00:00 26,1 21,7 11 6 NE 1017,0 16 -
17.08.2019 11:00:00 26,1 21,7 9 5 - 1017,2 16 -
17.08.2019 10:00:00 25,0 21,7 11 6 NE 1016,9 16 -
17.08.2019 09:00:00 24,4 21,7 8 4 - 1016,6 16 -
17.08.2019 08:00:00 23,9 21,7 5 3 - 1016,6 11 -
17.08.2019 07:00:00 23,3 21,7 5 3 - 1016,3 10 -
17.08.2019 06:00:00 23,3 21,7 0 0 N 1016,5 15 0,0
17.08.2019 05:00:00 23,3 21,1 0 0 N 1016,2 15 0,0
17.08.2019 04:00:00 23,3 21,7 5 3 NE 1016,6 16 0,0
17.08.2019 03:00:00 23,9 21,1 8 4 ENE 1016,9 16 -
17.08.2019 02:00:00 23,9 21,7 0 0 N 1016,8 16 -
17.08.2019 01:00:00 23,9 21,1 0 0 N 1017,0 16 -
17.08.2019 00:00:00 23,3 20,6 0 0 N 1017,0 16 -
16.08.2019 23:00:00 22,8 20,0 0 0 N 1017,1 16 -
16.08.2019 22:00:00 23,3 20,0 5 3 - 1016,4 16 -
16.08.2019 21:00:00 23,0 20,0 0 0 N - 16 -
16.08.2019 20:00:00 24,4 19,4 9 5 - 1015,7 16 -
16.08.2019 19:00:00 25,0 19,4 0 0 N 1015,5 16 -
16.08.2019 18:00:00 25,6 20,0 0 0 N 1015,9 16 -
16.08.2019 17:00:00 25,6 19,4 0 0 N 1016,3 16 -
16.08.2019 16:00:00 25,6 20,0 5 3 - 1016,5 16 -
16.08.2019 15:00:00 25,6 20,0 0 0 N 1017,0 16 -
16.08.2019 14:00:00 24,4 20,0 5 3 - 1017,5 16 -
16.08.2019 13:00:00 25,6 18,3 0 0 N 1016,9 16 -
16.08.2019 12:00:00 25,0 18,9 5 3 - 1017,1 16 -
16.08.2019 11:00:00 25,0 18,3 5 3 NE 1017,1 16 -
16.08.2019 10:00:00 23,3 18,3 11 6 NE 1017,0 16 -
16.08.2019 09:00:00 21,7 18,3 0 0 N 1017,2 16 -
16.08.2019 08:00:00 21,7 17,8 9 5 NE 1017,2 16 -
16.08.2019 07:00:00 21,1 18,3 8 4 NE 1016,9 16 -
16.08.2019 06:00:00 20,0 18,3 0 0 N 1016,9 16 -
16.08.2019 05:00:00 21,1 18,3 9 5 NE 1016,3 16 -
16.08.2019 04:00:00 20,6 18,3 0 0 N 1016,1 16 -
16.08.2019 03:00:00 20,6 18,3 9 5 ENE 1016,2 16 -
16.08.2019 02:00:00 21,1 17,8 9 5 NE 1016,6 16 -
16.08.2019 01:00:00 21,7 17,8 5 3 NE 1017,2 16 -
16.08.2019 00:00:00 21,7 18,3 8 4 - 1016,9 16 -
15.08.2019 23:00:00 21,7 17,8 0 0 N 1016,6 16 -
15.08.2019 22:00:00 21,7 18,3 0 0 N 1016,3 16 -
15.08.2019 21:00:00 21,7 18,3 8 4 - 1016,3 16 0,0
15.08.2019 20:00:00 22,2 18,3 8 4 - 1016,0 16 -
15.08.2019 19:00:00 23,3 17,8 11 6 - 1016,0 16 -
15.08.2019 18:00:00 24,4 17,2 5 3 - 1015,4 16 -
15.08.2019 17:00:00 25,6 17,2 8 4 - 1015,1 16 -
15.08.2019 16:00:00 26,1 18,3 8 4 SSE 1015,2 16 -
15.08.2019 15:00:00 26,7 18,3 9 5 - 1015,5 16 -
15.08.2019 14:00:00 27,2 18,9 0 0 N 1015,7 16 -
15.08.2019 13:00:00 28,3 17,2 - - - 1016,0 16 -
15.08.2019 12:00:00 27,2 16,7 11 6 ENE 1016,4 16 -
15.08.2019 11:00:00 25,6 17,2 13 7 ESE 1016,6 16 -
15.08.2019 10:00:00 25,6 19,4 9 5 NE 1016,3 16 -
15.08.2019 09:00:00 23,9 19,4 8 4 - 1015,7 16 -
15.08.2019 08:00:00 22,8 18,9 8 4 - 1015,6 15 39,6
15.08.2019 07:00:00 21,7 18,9 5 3 - 1015,1 15 -
15.08.2019 06:00:00 22,2 18,9 13 7 NE 1014,5 15 -
15.08.2019 05:00:00 22,8 19,4 8 4 NE 1014,2 15 -
15.08.2019 04:00:00 22,8 19,4 0 0 N 1013,9 15 -
15.08.2019 03:00:00 22,8 20,6 8 4 E 1014,0 10 -
15.08.2019 02:00:00 22,2 20,6 0 0 N - 6 -
15.08.2019 01:00:00 23,3 20,0 0 0 N 1013,6 13 -
15.08.2019 00:00:00 23,3 19,4 0 0 N 1013,4 16 -
14.08.2019 23:00:00 24,0 20,0 5 3 E 1012,9 16 -
14.08.2019 22:00:00 23,9 20,0 5 3 NE 1012,5 16 -
14.08.2019 21:00:00 24,4 20,0 8 4 - 1011,8 16 -
14.08.2019 20:00:00 24,4 19,4 8 4 - 1011,4 16 -
14.08.2019 19:00:00 25,6 19,4 11 6 ENE 1011,4 16 -
14.08.2019 18:00:00 25,6 19,4 - - - 1011,4 16 -
14.08.2019 17:00:00 25,0 20,0 5 3 - 1010,9 16 -
14.08.2019 16:00:00 26,1 19,4 11 6 - 1010,4 16 -
14.08.2019 15:00:00 27,2 20,0 11 6 - 1010,0 16 -
14.08.2019 14:00:00 27,8 20,6 5 3 ENE 1009,9 16 -
14.08.2019 13:00:00 26,7 20,0 11 6 ENE 1010,2 16 -
14.08.2019 12:00:00 26,1 20,0 13 7 ENE 1010,0 16 -
14.08.2019 11:00:00 25,0 20,0 5 3 E 1010,1 16 -
14.08.2019 10:00:00 24,4 20,0 13 7 NE 1010,1 15 -
14.08.2019 09:00:00 23,9 20,6 11 6 E 1009,4 8 -
14.08.2019 08:00:00 23,9 21,1 11 6 - 1009,2 4,8 -
14.08.2019 07:00:00 22,8 21,1 0 0 N 1008,9 4,8 -
14.08.2019 06:00:00 23,3 21,1 0 0 N 1008,1 13 -
14.08.2019 05:00:00 23,9 21,1 0 0 N 1007,9 13 -
14.08.2019 04:00:00 23,9 21,1 0 0 N 1007,7 13 -
14.08.2019 03:00:00 23,3 21,1 5 3 W 1007,8 13 -
14.08.2019 02:00:00 24,4 21,1 0 0 N 1007,8 13 0,0
14.08.2019 01:00:00 24,4 21,1 0 0 N 1008,4 11 -
14.08.2019 00:00:00 24,4 21,1 0 0 N 1008,6 15 -
13.08.2019 23:00:00 25,0 21,1 0 0 N 1008,5 16 -
13.08.2019 22:00:00 24,4 20,6 5 3 WSW 1008,4 16 -
13.08.2019 21:00:00 23,9 20,0 0 0 N 1008,3 16 0,0
13.08.2019 20:00:00 23,9 20,6 - - - 1008,0 16 0,0
13.08.2019 19:00:00 24,4 20,6 5 3 - 1008,1 15 -
13.08.2019 18:00:00 24,4 20,6 5 3 - 1008,0 15 -
13.08.2019 17:00:00 25,0 20,6 8 4 - 1008,1 16 -
13.08.2019 16:00:00 25,0 19,4 0 0 N 1008,3 16 -
13.08.2019 15:00:00 25,6 18,9 5 3 - 1008,5 16 -
13.08.2019 14:00:00 23,9 21,1 11 6 NE 1009,5 15 0,5
13.08.2019 13:00:00 24,4 20,6 5 3 - 1010,2 13 0,0
13.08.2019 12:00:00 25,0 21,1 5 3 - 1010,0 16 -
13.08.2019 11:00:00 23,9 20,6 8 4 - 1010,0 16 -
13.08.2019 10:00:00 23,9 20,6 5 3 - 909,7 16 -
13.08.2019 09:00:00 22,8 21,1 5 3 - 1009,6 16 0,3
13.08.2019 08:00:00 22,2 20,6 8 4 SW 1009,9 11 0,5
13.08.2019 07:00:00 23,3 19,4 9 5 - 1009,8 16 -
13.08.2019 06:00:00 23,3 20,0 13 7 SW 1009,9 16 -
13.08.2019 05:00:00 21,7 20,6 5 3 - 1009,8 16 0,5
13.08.2019 04:00:00 23,3 20,0 11 6 - 1010,1 16 0,0
13.08.2019 03:00:00 25,0 18,3 5 3 - 1010,6 16 -
13.08.2019 02:00:00 25,0 17,8 8 4 - 1011,1 16 -
13.08.2019 01:00:00 24,4 17,8 11 6 WSW 1011,3 16 -
13.08.2019 00:00:00 24,4 17,2 9 5 SSW 1011,6 16 -
12.08.2019 23:00:00 26,1 17,2 9 5 - 1011,8 16 -
12.08.2019 22:00:00 26,7 14,4 8 4 SW 1011,8 16 -
12.08.2019 21:00:00 27,2 13,9 5 3 - 1011,8 16 -
12.08.2019 20:00:00 27,2 13,9 0 0 N 1011,7 16 -
12.08.2019 19:00:00 28,3 13,3 5 3 WSW 1011,8 16 -
12.08.2019 18:00:00 28,3 13,9 - - - 1011,7 16 -

tt = temperature
td = dewpoint
ff = wind speed
dd = wind direction
ppp = reduced air pressure
vv = visibility
rr = precipitation

Next stations